Regional Weather Roundup
Issued by NWS State College, PA

Home | Current Version | Previous Version | Graphics & Text | Print | Product List | Glossary On
Versions: 1 2 3 4 5 6 7 8 9 10 11 12 13 14 15 16 17 18 19 20 21 22 23 24 25 26 27 28 29 30 31 32 33 34 35 36 37 38 39 40 41 42 43 44 45 46 47 48 49 50
401
ASUS41 KCTP 131703
RWRCTP

REGIONAL WEATHER ROUNDUP
NATIONAL WEATHER SERVICE STATE COLLEGE PA
1200 PM EST SAT FEB 13 2016

Note: "fair" indicates few or no clouds below 12,000 feet with no
significant weather and/or obstructions to visibility.

* = STATION THAT DOES NOT REPORT PRECIPITATION /E.G. RAIN...SNOW...ETC/
    THUNDER OR FOG.

PAZ002>004-007>009-013>016-020>023-029>032-131800-
WESTERN PENNSYLVANIA

CITY           SKY/WX    TMP DP  RH WIND       PRES   REMARKS
ERIE           CLOUDY     7  -1  70 N10G18    30.37R WCI  -8
MEADVILLE      HVY SNOW   6  -1  73 W16G28    30.27S VSB 1/4 WCI -12
FRANKLIN*      CLOUDY     5  -6  61 W8        30.26S WCI  -8
NEW CASTLE     CLOUDY    10  -6  48 NW17G23   30.35R WCI  -8
BEAVER COUNTY  CLOUDY    12  -8  40 NW14G26   30.32S WCI  -3
BUTLER*        PTSUNNY    9  -6  52 NW13G22   30.33S WCI  -7
PITTSBURGH INT LGT SNOW   9   0  67 W20       30.33R WCI -10
PITTSBURGH     LGT SNOW  10  -2  58 NW13G28   30.31R FOG     WCI  -5
INDIANA*       PTSUNNY    9  -4  56 NW12G26   30.27S HAZE    WCI  -6
LATROBE        PTSUNNY    9  -2  61 NW17G25   30.31R WCI -10
WASHINGTON CO* CLOUDY    10  -4  52 W10G16    30.35R WCI  -3
$$

PAZ004>006-010>012-017>019-024>028-033>037-041-042-045-046-049>053-131800-
CENTRAL PENNSYLVANIA

CITY           SKY/WX    TMP DP  RH WIND       PRES   REMARKS
BRADFORD       LGT SNOW   0 -10  63 NW21G31   30.12R VSB 1   WCI -22
DUBOIS         CLOUDY     4  -8  57 W18G24    30.17R WCI -16
CLEARFIELD     LGT SNOW   6  -8  52 NW18G28   30.19R WCI -13
JOHNSTOWN      HVY SNOW   3  -6  66 W28G37    30.11R VSB 1/4 WCI -21
ALTOONA        LGT SNOW   9  -1  64 NW15      30.18R WCI  -8
STATE COLLEGE  CLOUDY    10  -6  48 MISG      30.18R
WILLIAMSPORT   CLOUDY    13 -11  33 NW20G30   30.19R WCI  -5
SELINSGROVE    CLOUDY    13  -8  39 NW18G29   30.22R WCI  -4
FT INDIANTOWN  MOSUNNY   15  -9  33 NW13G47   30.17S WCI   1
CAPITAL CITY   PTSUNNY   18  -5  36 NW17G36   30.22R WCI   3
HARRISBURG     FLURRIES  16   0  49 NW24G32   30.21R WCI  -2
YORK           PTSUNNY   16  -2  45 W16G28    30.20S WCI   1
$$

PAZ038>040-043-044-047-048-054-055-060>062-067>071-131800-
EASTERN PENNSYLVANIA

CITY           SKY/WX    TMP DP  RH WIND       PRES   REMARKS
SCRANTON       CLOUDY     9 -10  42 NW26G37   30.10R WCI -13
MOUNT POCONO   CLOUDY     5 -10  50 NW22G32   29.94S BLWGSNOWWCI -16
ALLENTOWN      CLOUDY    18  -5  36 NW18G33   30.11R WCI   2
QUAKERTOWN*    MOSUNNY   18  -2  41 N12G26    30.11R WCI   5
READING        CLOUDY    17   3  54 NW25G36   30.15S WCI  -1
LANCASTER      PTSUNNY   16   2  54 NW24G31   30.17R WCI  -2
COATESVILLE    MOSUNNY   16   3  57 NW22      30.14R WCI  -2
POTTSTOWN      LGT SNOW  15   6  67 NW18G26   30.15S WCI  -2
BLUE BELL        N/A     18   9  68 NW13G18   30.13R WCI   4
DOYLESTOWN     CLOUDY    17   2  51 NW14G31   30.09R WCI   3
WILLOW GROVE   NOT AVBL
NORTH PHILA    PTSUNNY   22   0  38 NW15G30   30.14R WCI   9
PHILADELPHIA   PTSUNNY   22   1  40 W22G35    30.16S WCI   6
$$




USA.gov is the U.S. government's official web portal to all federal, state and local government web resources and services.